Managua, Nicaragua

9:30 PM CST on April 29, 2017 (GMT -0600)
Augusto Cesar Sandino

Weather History for MNMG - March, 2014

Change the Weather History Date:

Thursday, March 20, 2014

  Actual Average Record
Temperature  
Mean Temperature 84 °F -  
Max Temperature 96 °F 92 °F 96 °F (1998)
Min Temperature 71 °F 72 °F 69 °F (1997)
Cooling Degree Days 18    
Growing Degree Days 34 (Base 50)    
Moisture  
Dew Point 67 °F    
Average Humidity 57    
Maximum Humidity 88    
Minimum Humidity 32    
Precipitation  
Precipitation 0.00 in - - ()
Sea Level Pressure  
Sea Level Pressure 29.82 in    
Wind  
Wind Speed 7 mph ()    
Max Wind Speed 21 mph    
Max Gust Speed -    
Visibility 6.2 miles    
Events      
Averages and records for this station are not official NWS values.
T = Trace of Precipitation, MM = Missing Value Source: Averaged Metar Reports

Daily Weather History Graph

Daily Weather History Graph

Search for Another Location

Airport or City:

Trip Planner

Search our weather history database for the weather conditions in past years. The results will help you decide how hot, cold, wet, or windy it might be!

Date:

Astronomy

Mar. 20, 2014 Rise Set
Actual Time 5:48 AM CST 5:55 PM CST
Civil Twilight 5:27 AM CST 6:16 PM CST
Nautical Twilight 5:03 AM CST 6:41 PM CST
Astronomical Twilight 4:38 AM CST 7:05 PM CST
Moon 9:31 PM CST (3/20) 8:34 AM CST (3/20)
Length of Visible Light 12h 48m
Length of Day
12h 06m
Waning Gibbous, 83% of the Moon is Illuminated
Mar 20
Waning Gibbous
Mar 23
Last Quarter
Mar 30
New
Apr 7
First Quarter
Apr 15
Full

Hourly Weather History & Observations

Time (CST) Temp. Heat Index Dew Point Humidity Pressure Visibility Wind Dir Wind Speed Gust Speed Precip Events Conditions
12:00 AM 78.8 °F - 66.2 °F 65% 29.86 in - ENE 9.2 mph - N/A   Unknown
1:00 AM 77.0 °F - 66.2 °F 69% 29.83 in - Calm Calm - N/A   Unknown
2:00 AM 77.0 °F - 66.2 °F 69% 29.83 in - Calm Calm - N/A   Unknown
3:00 AM 77.0 °F - 66.2 °F 69% 29.83 in - Calm Calm - N/A   Unknown
4:00 AM 71.6 °F - 68.0 °F 88% 29.83 in - Calm Calm - N/A   Unknown
5:00 AM 73.4 °F - 68.0 °F 83% 29.83 in - East 4.6 mph - N/A   Unknown
6:00 AM 75.2 °F - 69.8 °F 83% 29.83 in 6.2 mi ESE 4.6 mph - N/A   Partly Cloudy
7:00 AM 78.8 °F - 68.0 °F 69% 29.86 in 6.2 mi East 4.6 mph - N/A   Partly Cloudy
8:00 AM 82.4 °F 85.4 °F 68.0 °F 62% 29.86 in 6.2 mi ENE 6.9 mph - N/A   Partly Cloudy
9:00 AM 86.0 °F 88.2 °F 66.2 °F 51% 29.86 in 6.2 mi East 11.5 mph - N/A   Partly Cloudy
10:00 AM 89.6 °F 92.2 °F 66.2 °F 46% 29.86 in 6.2 mi East 13.8 mph - N/A   Partly Cloudy
11:00 AM 91.4 °F 93.2 °F 64.4 °F 41% 29.83 in 6.2 mi ENE 13.8 mph - N/A   Partly Cloudy
12:00 PM 95.0 °F 96.0 °F 62.6 °F 34% 29.83 in 6.2 mi East 18.4 mph - N/A   Partly Cloudy
1:00 PM 95.0 °F 96.0 °F 62.6 °F 34% 29.80 in 6.2 mi ESE 20.7 mph - N/A   Partly Cloudy
2:00 PM 95.0 °F 96.0 °F 62.6 °F 34% 29.77 in 6.2 mi East 18.4 mph - N/A   Partly Cloudy
3:00 PM 96.8 °F 98.0 °F 62.6 °F 32% 29.74 in 6.2 mi East 11.5 mph - N/A   Partly Cloudy
4:00 PM 95.0 °F 96.0 °F 62.6 °F 34% 29.71 in 6.2 mi ENE 11.5 mph - N/A   Partly Cloudy
5:00 PM 91.4 °F 95.4 °F 68.0 °F 46% 29.74 in 6.2 mi ESE 13.8 mph - N/A   Partly Cloudy
6:00 PM 87.8 °F 92.6 °F 69.8 °F 55% 29.74 in 6.2 mi ESE 11.5 mph - N/A   Partly Cloudy
7:00 PM 84.2 °F 89.6 °F 71.6 °F 66% 29.77 in 6.2 mi East 4.6 mph - N/A   Partly Cloudy
8:00 PM 82.4 °F 87.2 °F 71.6 °F 70% 29.83 in 6.2 mi East 6.9 mph - N/A   Partly Cloudy
9:00 PM 84.2 °F 87.3 °F 68.0 °F 58% 29.83 in - East 13.8 mph - N/A   Clear
10:00 PM 84.2 °F 87.3 °F 68.0 °F 58% 29.86 in - East 11.5 mph - N/A   Clear
11:00 PM 82.4 °F 85.4 °F 68.0 °F 62% 29.86 in - East 13.8 mph - N/A   Clear